Погода в Суворовской

Россия / Ставропольский край     44°11′51″N   42°38′59″E
темп.,
°C
ветер,
м/с
пор.,
м/с
влажн.,
%
обл.,
%
осадки,
мм/ч
давл.,
гПа
погр.,
м
13 апреля, вт
вт1300:00+7юз1185100 0.0 102343
03:00+7з1185100 0.0 102334
06:00+7з0087100 0.0 102325
09:00+7св0185100 0.1 1023156
12:00+8св1185100 0.3 1022331
15:00+9зсз1180100 0.3 1022450
18:00+8зсз1284100 0.0 102178
21:00+8сз2288100 0.1 102153
14 апреля, ср
ср1400:00+7зюз2695100 4.0 1019277
03:00+7з2791100 5.5 1018297
06:00+7зсз4887100 0.1 1018385
09:00+10зсз71075100 0.1 1018914
12:00+11сз6769100 0.0 10171111
15:00+13сз576241 0.1 10171187
18:00+12сз3569100 0.0 1017305
21:00+9сз11835 0.0 101818
15 апреля, чт
чт1500:00+7юз22895 0.0 101714
03:00+6вюв00885 0.0 101810
06:00+6ююз11875 0.0 101810
09:00+13в23625 0.0 1016525
12:00+17всв32432 0.0 10151366
15:00+18всв43376 0.0 10141844
18:00+16всв3649100 0.0 1015165
21:00
16 апреля, пт
пт1600:00+11в116580 0.0 101613
03:00+9зюз117327 0.0 101610
06:00+9з1177100 0.0 101710
09:00+13св226198 0.0 1016519
12:00+18вюв564395 0.0 10141552
15:00+19вюв674181 0.0 10131842
18:00+14ссз577398 1.1 1015190
21:00+10зсз2293100 4.0 101856
17 апреля, сб
сб1700:00+9ссз2390100 0.1 1020384
03:00+9сз2390100 0.4 1019223
06:00+8сз3594100 2.1 1021361
09:00+8ссз2385100 2.8 1021417
12:00+8с1285100 1.4 1022305
15:00+9вюв2281100 1.5 1022328
18:00+8ююв2592100 1.9 1022244
21:00+8юв2489100 2.6 1021160